User: anonymous   Login
Location: Unspecified
(0.0000°N, 0.0000°E)
Time: 11:39:52
(UTC+00:00)
Language:

PLEIADES HR1 - Orbit

View from above orbital plane
View from above orbital plane
View from above satellite
View from above satellite

Ground track
Ground track

The orbit data is extracted from the following two-line orbital elements,

1 38012U 11076F   15032.21923316  .00000314  00000-0  77363-4 0  5003
2 38012 098.1739 108.8044 0001271 093.9671 266.1684 14.58574431166484
Epoch (UTC): 01 February 2015 05:15:41
Eccentricity: 0.0001271
inclination: 98.1739°
perigee height: 697 km
apogee height: 698 km
right ascension of ascending node: 108.8044°
argument of perigee: 93.9671°
revolutions per day: 14.58574431
mean anomaly at epoch: 266.1684°
orbit number at epoch: 16648

The dashed part of the orbit path shows where the satellite is in the earth's shadow,  

DLR